Location: Nantong Television Tower
(32.0188°N, 120.8512°E)
Time: 08:51:49
(UTC+08:00)

Daily predictions for brighter satellites

Satellite Brightness Start Highest point End
(mag) Time Altitude Azimuth Time Altitude Azimuth Time Altitude Azimuth
OAO 3 Rocket 4.1 18:10:50 10° SW 18:15:21 35° SSE 18:19:50 10° E
Cosmos 1300 Rocket 3.5 18:13:34 10° S 18:17:57 79° E 18:22:24 10° N
Okean 1 3.9 18:14:58 10° NNW 18:19:00 66° W 18:23:01 10° S
Cosmos 1602 3.8 18:16:15 10° S 18:20:07 85° W 18:24:02 10° N
Cosmos 1340 2.6 18:17:32 10° N 18:21:20 79° E 18:25:06 10° S
Cosmos 2297 Rocket 3.8 18:19:29 10° SE 18:22:01 13° E 18:24:33 10° ENE
Meteor 1-19 Rocket 4.3 18:18:32 10° N 18:24:11 58° E 18:29:53 10° SSE
OTV 4 0.4 18:24:25 10° WSW 18:27:23 82° NNW 18:30:13 11° ENE
Orbus 7S 4.1 18:27:03 10° WSW 18:29:26 29° S 18:32:14 10° ESE
Cosmos 2237 4.5 18:24:20 10° N 18:29:51 46° ENE 18:35:18 10° SE
COSMOS 2428 3.3 18:24:49 10° N 18:30:00 36° ENE 18:35:11 10° SE
COSMO-SKYMED 1 4.5 18:32:01 10° N 18:35:56 33° WNW 18:39:49 10° SW
Cosmos 2219 Rocket 3.4 18:31:57 10° N 18:36:12 22° ENE 18:39:54 12° ESE
Meteor 2-4 Rocket 3.8 18:31:09 10° N 18:36:27 50° E 18:41:37 10° SSE
Cosmos 1633 4.1 18:33:00 10° SSW 18:36:29 41° W 18:39:59 10° N
Cosmos 2360 Rocket 2.3 18:31:12 10° NNW 18:36:53 84° WSW 18:42:32 10° SSE
GPS 2-04 Rocket1 3.3 18:33:35 10° W 18:37:44 54° N 18:41:17 14° ENE
CZ-3C R/B 3.1 18:27:11 10° WSW 18:37:48 28° SSW 18:41:15 10° SE
Cosmos 2219 3.5 18:35:04 10° SSW 18:40:48 75° WNW 18:46:33 10° NNE
Cosmos 2227 Rocket 3.0 18:37:27 10° SSE 18:42:15 29° ESE 18:47:05 10° NE
Resurs 01 Rocket 2.4 18:39:33 10° SE 18:43:20 29° ENE 18:47:08 10° NNE
Meteor 1-23 Rocket 4.5 18:37:49 10° N 18:43:24 48° E 18:48:52 10° SSE
H-2A R/B 4.0 18:42:33 10° SSE 18:45:24 16° SE 18:48:15 14° E
Meteor 1-13 Rocket 4.5 18:39:55 10° NNW 18:45:31 76° W 18:51:13 10° S
Atlas Centaur 2 3.6 18:40:25 10° SW 18:47:19 34° SSE 18:51:47 16° ESE
Genesis I 3.1 18:43:34 10° NNW 18:47:30 70° ENE 18:51:23 10° SE
Resurs 1-3 4.3 18:48:54 10° SE 18:52:43 31° ENE 18:56:34 10° N
Cosmos 2285 Rocket 4.3 18:48:24 10° N 18:54:30 44° ENE 19:00:32 10° SE
Okean 1 Rocket 4.4 18:55:25 10° SSW 18:59:40 43° W 19:03:57 10° N
ATLAS 2A CENTAUR R/B 2.9 18:58:02 10° WSW 19:00:30 29° S 19:04:57 15° SE
HJ-1C 3.2 19:04:15 10° SSE 19:07:36 83° E 19:10:59 10° N
Cosmos 1892 Rocket 4.0 19:04:30 10° NNE 19:08:33 37° E 19:10:02 28° ESE
Cosmos 1025 Rocket 2.9 19:04:48 10° N 19:09:12 82° E 19:13:35 10° S
Hubble Space Telescope 1.2 19:05:47 10° WSW 19:09:47 50° S 19:11:12 33° ESE
ATLAS CENTAUR R/B 2.1 19:09:53 10° SW 19:15:25 57° NW 19:16:43 27° NNE
SJ-6B 4.0 19:12:19 10° S 19:16:10 45° W 19:19:56 10° NNW
FENGYUN 3A 3.7 19:12:26 10° SSE 19:17:51 86° WSW 19:23:18 10° NNW
H-2A R/B 2.5 19:17:26 21° SSE 19:19:49 72° ENE 19:23:32 10° N
Cosmos 405 Rocket 2.8 19:16:15 10° N 19:20:13 52° E 19:20:29 51° E
CZ-2D R/B 3.3 19:21:41 51° ENE 19:21:41 51° ENE 19:25:10 10° N
GEOS 3 Rocket 3.7 19:16:16 10° NNE 19:21:32 80° WNW 19:26:49 10° SW
Cosmos 2333 Rocket 2.5 19:18:37 10° N 19:24:07 45° ENE 19:25:31 38° ESE
Cosmos 1980 4.2 19:18:59 10° N 19:24:08 35° ENE 19:24:19 35° ENE
Cosmos 1544 Rocket 3.4 19:22:21 10° S 19:26:40 85° E 19:31:01 10° N
Spot 2 Rocket 3.4 19:23:47 10° SSE 19:28:49 88° WSW 19:33:56 10° NNW
Cosmos 468 Rocket 4.0 19:23:50 10° N 19:29:00 56° ENE 19:30:21 43° ESE
ALOS 3.5 19:35:06 10° S 19:39:30 42° W 19:43:57 10° NNW
Okean 2 4.1 19:40:09 10° NNW 19:44:13 53° W 19:48:16 10° S
Cosmos 2082 3.7 19:38:59 10° SSW 19:44:43 83° WNW 19:50:28 10° NNE
Helios 1A 3.9 19:50:00 40° NNW 19:50:00 40° NNW 19:52:44 10° NNW
Cosmos 1814 Rocket 4.1 19:45:27 10° N 19:49:41 56° NNE 19:49:41 56° NNE
Helios 1B rocket 3.0 19:47:59 10° N 19:52:02 56° WNW 19:56:05 10° SSW
Cosmos 1295 Rocket 4.3 19:52:11 10° S 19:58:19 72° E 20:04:35 10° N
OAO 3 Rocket 3.4 19:53:46 10° WSW 19:58:10 70° W 19:58:10 70° W
BREEZE-M DEB (TANK) 3.3 19:58:12 10° NW 20:01:48 85° NE 20:02:32 70° ESE
OTV 4 3.8 20:01:04 10° WNW 20:01:29 13° WNW 20:01:29 13° WNW
Cosmos 1455 Rocket 4.3 20:00:00 10° SSW 20:04:08 41° W 20:08:16 10° N
Skynet4D Del rocket 4.1 19:59:07 10° WSW 20:03:35 46° SSW 20:03:35 46° SSW
Cosmos 2297 Rocket 2.5 19:59:49 10° SSW 20:05:24 63° WNW 20:08:41 25° N
Cosmos 2237 Rocket 2.5 20:03:13 10° NNW 20:07:50 59° N 20:07:50 59° N
USA 229 DEB 4.5 20:10:18 10° NW 20:17:12 51° WSW 20:20:43 29° S
USA 229 4.4 20:10:23 10° NW 20:17:18 52° WSW 20:20:44 30° S
Resurs 01 Rocket 4.2 20:16:39 10° SW 20:19:45 19° W 20:22:53 10° NW
Cosmos 2219 Rocket 3.2 20:15:01 10° NW 20:20:15 42° WSW 20:21:44 35° SW
NOSS 0 Rocket 4.4 20:17:06 10° NNW 20:23:04 55° WSW 20:23:46 53° SW
Cosmos 2227 Rocket 3.9 20:21:16 10° WSW 20:26:09 30° WNW 20:31:06 10° N
NOSS 3-1 (A) 4.2 20:22:28 10° NNW 20:29:03 59° NNE 20:29:03 59° NNE
Atlas Centaur 2 3.4 20:29:29 10° WSW 20:34:27 42° SW 20:34:27 42° SW
SL-16 R/B 4.4 20:39:30 10° NNW 20:40:46 17° NNW 20:40:46 17° NNW
NOSS 3-1 (C) 4.2 20:39:57 10° NNW 20:47:02 71° WNW 20:47:02 71° WNW
Cosmos 2333 Rocket 4.5 21:03:58 10° NW 21:07:37 19° W 21:07:37 19° W
ATLAS 3B CENTAUR R/B 4.5 21:14:44 10° WSW 21:34:15 57° SW 21:34:15 57° SW
